Theta_e
289 282 278 280 281 280 276 276 274 277 281 280 281 281 285 289 292 294 298 302 305 309 309 311 314 318 326 327 327 328 329 329 329 328 325 324 322 321 321 321 322 322 321 321
283 279 283 285 283 280 278 274 272 278 281 280 278 278 282 288 288 290 295 302 303 305 306 306 307 310 322 324 325 326 328 329 329 328 328 327 325 324 323 322 322 323 322 322
280 282 287 284 280 279 278 276 275 275 280 280 278 277 281 285 291 292 295 303 305 304 302 301 302 302 310 310 313 324 326 329 329 329 329 328 328 325 324 323 322 323 323 323
282 286 284 283 279 280 276 281 280 278 274 267 279 268 278 283 288 293 299 303 301 300 300 299 299 301 302 305 307 310 315 316 326 329 327 326 325 323 324 324 324 323 324 324
282 284 283 281 281 282 279 283 280 279 276 272 273 273 276 285 286 291 298 297 296 295 295 294 296 296 298 302 305 305 312 310 309 311 327 326 326 327 326 325 324 325 325 326
285 290 287 284 285 284 285 282 280 279 276 269 273 275 275 286 287 293 294 293 292 292 293 294 295 296 296 297 300 303 304 302 302 304 305 325 325 324 324 324 324 325 326 326
280 284 288 288 282 285 283 278 270 268 269 268 279 275 279 283 287 292 290 290 291 291 291 291 292 293 294 294 296 299 299 298 300 300 300 307 323 322 322 323 323 323 323 321
274 274 284 288 284 281 280 278 274 262 266 272 280 276 276 284 286 290 289 289 289 289 290 289 290 291 292 293 294 295 295 296 297 297 297 297 301 308 307 311 313 310 309 309
275 276 288 287 290 287 282 277 283 277 278 275 276 279 283 285 284 285 285 285 285 286 288 288 289 290 290 292 292 294 294 294 295 296 295 295 296 297 298 300 301 302 304 305
281 275 284 285 288 287 286 286 278 279 272 270 275 276 275 280 281 283 283 283 285 286 287 287 288 289 290 291 292 293 293 293 293 294 295 294 294 295 295 296 296 296 298 300
285 281 281 286 283 282 283 282 282 282 279 273 271 273 282 283 284 283 284 284 285 286 286 287 288 289 290 291 291 291 291 291 291 292 292 292 293 293 294 293 293 294 294 295
284 282 277 280 287 289 286 280 282 278 274 275 276 273 283 283 285 285 285 285 286 286 286 287 288 289 289 289 290 290 290 290 291 291 291 291 291 291 290 290 291 292 291 292
284 278 274 277 280 283 280 281 282 283 282 275 269 273 283 282 282 285 285 285 286 287 287 287 287 287 287 287 287 288 288 289 290 290 290 290 289 289 289 289 290 289 289 290
287 281 276 272 275 278 276 280 280 280 276 275 275 276 279 280 280 282 283 284 285 286 286 286 286 286 286 286 286 286 287 288 288 288 287 287 287 287 287 288 288 288 288 288
283 277 278 277 278 279 277 276 280 278 278 275 277 276 279 280 280 281 283 284 284 284 283 284 283 283 284 284 285 285 285 286 287 286 285 285 285 286 286 286 286 286 286 286
280 278 276 272 276 278 276 276 278 278 278 279 279 277 282 283 283 282 282 283 282 282 282 282 282 282 282 283 283 283 283 283 284 283 283 284 284 284 284 284 284 284 284 285
275 273 272 270 272 272 273 276 276 279 279 278 276 280 283 281 281 281 282 282 282 282 282 281 281 281 281 281 282 281 282 282 282 282 282 282 282 282 282 282 282 282 282 283
270 267 266 267 269 266 278 279 278 278 278 280 280 280 281 281 281 281 282 282 281 282 282 281 280 280 280 281 281 281 281 281 281 281 281 281 281 281 281 281 280 280 281 280
275 268 265 267 258 271 275 275 274 274 276 278 279 280 281 282 282 280 281 281 280 280 280 280 280 280 280 280 280 280 280 280 280 280 280 280 281 280 280 280 279 279 279 279
274 271 268 258 260 262 274 274 276 276 273 278 280 280 281 280 278 278 280 281 280 280 280 279 279 279 279 279 280 280 279 279 279 279 279 280 280 279 279 279 279 279 279 279
260 259 258 256 257 264 272 274 276 268 273 277 279 280 280 278 277 279 280 279 280 280 280 279 279 278 278 279 279 278 278 278 278 278 279 279 279 279 278 278 278 278 277 277
263 258 256 253 258 262 271 274 272 275 276 278 278 277 279 279 279 278 278 279 279 278 278 279 278 278 278 279 279 278 277 277 277 276 276 275 276 278 278 276 275 276 275 274
266 266 263 266 267 272 273 274 276 277 277 277 277 277 278 277 273 273 272 272 272 272 275 273 274 274 273 274 275 275 274 273 273 273 271 271 273 276 276 274 274 273 273 272
267 267 266 267 269 269 273 275 276 277 276 276 277 276 276 274 271 272 271 271 270 268 269 265 268 270 271 269 272 271 271 270 269 269 269 269 271 271 271 274 274 272 271 270
268 267 265 267 268 267 269 270 272 273 272 273 271 271 272 274 273 273 272 271 268 267 265 264 267 267 267 265 266 264 268 269 270 269 268 269 270 269 270 271 271 272 272 273
268 269 269 268 272 271 271 267 266 269 269 267 270 271 269 271 273 271 270 268 267 268 266 267 266 266 266 266 267 267 266 268 268 269 268 269 269 268 269 270 270 278 280 281
Wind_Speed
8 8 15 23 25 19 2 11 13 14 14 9 9 18 16 15 13 11 7 10 10 6 1 2 5 5 14 15 13 18 15 14 12 10 9 8 8 7 6 6 8 9 8 8
5 20 23 16 19 21 17 9 16 11 11 9 13 20 18 15 18 18 13 10 7 5 4 4 8 9 9 14 15 15 14 15 11 10 10 7 8 6 7 7 8 9 10 10
18 17 6 15 15 20 21 22 17 12 1 14 14 15 13 14 15 13 17 14 6 7 5 4 7 8 7 6 3 13 15 14 13 13 9 6 7 4 4 7 7 9 10 10
13 15 21 16 24 21 21 25 18 15 4 6 8 10 11 16 16 14 13 11 9 7 6 5 9 6 5 6 3 4 8 5 3 12 12 15 12 8 9 9 7 8 10 11
12 12 11 15 17 21 14 11 17 17 9 2 15 10 11 14 16 15 10 10 7 6 7 8 8 3 5 5 3 3 6 4 4 9 8 11 13 9 6 6 10 9 9 10
23 4 5 5 7 21 5 3 10 5 3 8 20 12 8 9 12 14 8 10 9 7 9 9 8 6 7 7 6 2 10 8 8 6 9 15 13 11 7 8 7 6 5 7
8 4 4 4 6 9 8 4 4 6 8 10 4 14 13 9 13 13 15 12 8 8 9 9 9 8 8 11 10 8 8 7 4 8 10 10 10 6 7 7 6 5 3 2
6 7 1 5 6 6 18 11 5 9 6 5 5 5 1 4 9 16 13 13 10 9 10 9 12 7 6 8 9 9 10 7 7 10 10 11 14 5 5 3 3 4 3 3
5 6 2 6 3 5 9 12 16 11 3 5 4 3 5 5 9 13 13 13 11 10 10 11 8 4 9 7 9 9 8 7 9 11 11 13 10 9 8 7 8 5 5 4
5 9 2 2 3 2 4 5 5 4 4 4 3 6 5 3 6 8 12 12 10 12 8 8 6 11 9 9 8 9 9 9 11 11 10 10 10 11 9 10 11 10 8 9
6 4 7 3 4 6 2 0 1 0 1 3 4 4 8 5 4 8 9 13 10 8 9 8 8 9 6 10 10 9 11 10 12 9 10 9 10 12 9 10 6 8 9 7
4 4 4 5 1 2 3 7 3 2 1 3 4 4 9 8 6 7 9 10 9 11 9 9 8 6 9 11 11 11 11 10 9 9 9 11 9 7 9 8 10 8 10 9
7 4 5 9 5 6 7 18 4 3 3 8 5 4 5 11 10 7 9 9 8 9 9 8 6 8 8 8 10 10 9 9 9 9 9 10 9 8 9 6 9 10 10 8
4 8 9 6 3 5 8 23 18 5 9 13 10 11 8 10 7 7 9 8 8 8 8 7 8 8 8 10 11 10 9 8 8 9 9 9 9 8 8 7 7 10 9 10
6 5 6 5 7 5 23 22 22 25 10 11 11 16 10 8 7 6 6 7 9 8 9 8 7 9 9 9 9 8 8 8 8 8 9 8 7 8 8 10 10 10 10 9
10 5 3 4 9 11 19 27 21 14 13 12 13 14 8 8 7 8 8 9 10 9 9 8 8 8 8 8 6 8 9 8 7 7 8 6 7 8 8 7 8 9 8 8
6 4 6 6 11 6 18 17 15 12 17 5 12 7 5 10 12 10 9 10 10 9 7 7 6 5 5 5 6 8 6 5 6 6 7 7 7 7 6 6 8 7 6 6
6 3 4 3 7 11 5 8 2 10 11 11 11 9 8 8 8 9 10 8 8 7 6 6 5 4 4 4 6 6 7 5 5 5 7 6 5 6 6 7 8 7 5 4
1 2 5 5 2 2 5 9 6 6 7 6 4 3 2 2 2 9 8 7 6 6 5 5 4 4 5 6 6 6 6 6 5 6 5 5 5 6 6 7 6 4 3 5
4 7 6 5 7 3 5 5 4 3 5 6 4 3 5 5 6 3 5 5 7 7 5 5 6 5 6 5 5 5 5 4 5 5 4 4 5 6 5 5 4 3 4 5
8 7 6 3 4 6 6 8 5 8 3 6 4 4 6 5 2 2 3 6 5 5 6 6 7 6 5 4 5 6 5 6 4 4 5 6 6 5 4 3 2 3 4 4
2 3 1 2 7 5 2 4 6 3 3 3 3 3 6 6 5 5 6 6 6 7 7 6 6 5 5 5 4 5 6 3 4 5 5 5 4 3 3 4 3 4 4 4
4 5 4 6 7 3 5 2 2 1 2 3 3 3 5 6 2 3 1 3 3 3 4 3 4 4 4 5 4 5 1 2 3 4 4 3 4 4 4 3 3 2 2 2
3 2 1 5 4 4 3 5 4 5 4 3 4 2 3 5 1 2 2 3 4 4 4 2 4 4 3 4 4 1 3 1 4 4 2 2 3 3 3 3 1 2 1 1
4 3 2 4 5 5 5 4 2 4 4 3 4 3 2 5 2 1 2 3 2 1 3 3 3 3 4 4 4 3 1 2 1 1 0 0 1 0 0 0 2 2 3 3
6 7 5 5 4 5 4 2 2 2 1 1 1 3 3 1 3 1 1 2 2 3 2 3 2 2 4 4 5 5 2 3 3 2 2 2 2 1 1 1 3 5 8 6
Wind_Direction
196 216 215 209 205 232 218 211 229 235 237 252 256 252 247 246 254 252 242 236 229 183 176 352 340 302 174 180 180 185 178 177 175 168 173 176 177 180 181 184 188 181 182 183
227 239 234 231 215 216 232 226 235 263 244 204 246 255 255 240 244 244 247 232 219 157 166 67 5 344 196 177 183 185 185 184 191 176 182 184 178 195 187 183 185 188 185 186
239 251 235 216 206 211 217 222 226 224 70 223 249 269 261 252 240 240 229 231 179 169 160 103 50 345 335 73 70 187 185 203 195 189 179 176 169 136 172 193 194 196 188 191
253 270 246 214 215 200 225 211 220 228 215 237 185 272 238 233 227 212 221 196 157 135 104 81 75 5 5 6 360 71 105 95 212 198 183 183 187 187 198 197 193 190 191 198
263 276 232 210 212 196 245 217 213 216 216 329 261 269 246 209 200 190 163 119 118 100 101 77 56 4 357 331 350 18 114 76 60 28 214 196 187 186 179 189 187 188 193 199
262 248 241 211 202 189 195 199 192 187 185 243 244 220 234 193 198 168 133 123 120 111 85 77 57 44 359 3 347 12 71 61 39 52 8 200 195 172 163 174 182 185 192 196
305 224 198 205 150 176 190 166 154 188 198 237 211 187 248 330 311 146 137 117 105 94 89 76 60 39 13 30 8 26 41 54 58 57 47 340 164 163 168 168 181 149 171 230
326 320 228 183 213 176 188 170 220 200 178 199 153 221 316 34 34 100 102 100 100 88 83 67 57 38 36 38 30 35 43 24 33 72 48 25 6 95 65 55 114 103 97 97
303 266 231 230 259 196 160 207 237 302 236 107 125 145 119 71 68 85 96 97 92 79 77 71 63 47 42 29 48 45 53 40 39 43 62 53 22 44 64 54 55 45 90 80
271 288 267 317 264 261 230 136 167 181 242 117 128 74 41 72 78 99 97 94 85 74 82 81 70 50 39 38 37 44 53 46 51 46 54 63 45 36 40 55 54 51 20 65
280 263 308 316 355 360 343 189 241 331 313 134 119 56 359 69 105 105 100 94 97 114 87 74 59 60 42 54 40 36 37 46 50 43 57 48 62 40 37 57 68 71 54 38
299 309 309 271 316 330 327 352 294 284 95 43 85 58 356 23 104 104 97 97 79 74 79 70 59 65 49 53 39 30 34 30 44 45 56 60 59 72 70 43 65 67 70 55
329 355 324 334 23 34 10 344 329 26 1 23 82 92 37 41 42 60 87 78 79 73 72 75 66 54 56 50 56 41 31 29 33 39 48 55 48 44 62 42 62 61 55 51
354 21 43 73 13 332 13 25 30 54 71 88 60 104 61 49 38 46 57 63 64 64 64 58 57 57 50 48 45 39 26 30 43 48 46 50 49 49 49 52 64 66 71 64
30 51 29 65 29 35 40 26 35 52 30 62 81 69 52 47 44 42 68 74 71 60 54 51 49 46 49 49 47 47 36 21 31 52 55 50 51 54 55 42 45 50 51 63
347 337 359 6 355 24 46 20 18 20 25 56 69 63 44 56 64 61 70 83 80 80 78 68 56 49 49 58 51 57 37 28 28 50 55 39 50 55 58 60 58 64 53 50
354 348 10 329 348 351 38 6 4 41 37 6 52 40 43 46 48 27 47 58 64 66 68 65 63 59 56 50 63 67 62 49 43 45 53 45 42 51 51 62 69 59 64 78
311 54 26 313 355 40 330 318 286 48 40 35 58 59 71 85 72 42 24 54 60 64 77 81 90 75 47 52 59 69 62 52 57 47 62 54 54 59 51 59 61 57 51 56
334 104 61 83 54 299 353 354 7 19 25 7 55 36 65 155 134 49 32 44 63 69 65 81 73 62 61 50 49 61 58 65 57 59 57 61 59 62 50 55 62 59 67 65
25 47 96 34 84 96 256 312 333 281 31 8 36 8 340 347 63 347 11 28 53 62 66 80 73 76 76 51 67 74 62 65 61 53 56 66 74 76 78 74 50 37 52 59
341 3 84 40 92 288 275 288 306 64 273 335 357 16 5 67 52 123 75 60 61 53 55 51 60 73 67 56 64 66 66 56 41 56 47 44 59 72 88 80 59 83 77 67
201 82 309 60 59 345 319 315 81 234 312 337 15 21 81 96 86 73 54 48 55 65 54 43 65 58 41 51 72 70 61 49 57 53 55 44 32 40 55 76 53 50 74 89
7 168 188 157 206 258 292 7 27 237 318 9 73 98 112 102 52 19 26 14 23 51 50 37 58 61 22 21 35 61 16 98 87 80 76 55 38 37 33 71 81 68 70 81
282 178 143 51 288 262 337 340 356 8 29 20 63 87 85 119 126 47 357 15 8 353 18 28 62 54 19 356 1 43 320 100 108 108 90 56 77 57 34 30 52 78 128 110
205 95 181 273 298 333 303 263 309 331 3 27 12 22 73 102 54 83 336 341 341 341 349 11 24 6 324 337 323 281 276 148 128 91 63 33 94 108 344 219 194 208 234 180
184 182 145 214 222 164 237 251 258 164 130 350 66 17 2 68 160 134 291 313 337 1 8 18 21 354 335 346 332 333 310 186 169 198 203 214 206 232 255 296 316 266 243 250